Westminster, MD

5:57 PM EST on February 13, 2016 (GMT -0500)
Carroll County Regional-Poage

Weather History for KDMW - September, 2013

Change the Weather History Date:

Friday, September 27, 2013

  Actual Average (KHGR) Record (KHGR)
Temperature  
Mean Temperature 63 °F 61 °F  
Max Temperature 69 °F 71 °F - ()
Min Temperature 57 °F 52 °F - ()
Degree Days  
Heating Degree Days 2 5  
Month to date heating degree days 51  
Since 1 July heating degree days 56  
Cooling Degree Days 0 1  
Month to date cooling degree days 88  
Year to date cooling degree days 956  
Growing Degree Days 13 (Base 50)    
Moisture  
Dew Point 55 °F    
Average Humidity 78    
Maximum Humidity 88    
Minimum Humidity 60    
Precipitation  
Precipitation 0.00 in 0.14 in - ()
Month to date precipitation 3.25  
Year to date precipitation 29.88  
Sea Level Pressure  
Sea Level Pressure 30.19 in    
Wind  
Wind Speed 1 mph (SE)    
Max Wind Speed 6 mph    
Max Gust Speed -    
Visibility 10 miles    
Events      
T = Trace of Precipitation, MM = Missing Value Source: NWS Daily Summary

Daily Weather History Graph

Daily Weather History Graph

Search for Another Location

Airport or City:

Trip Planner

Search our weather history database for the weather conditions in past years. The results will help you decide how hot, cold, wet, or windy it might be!

Date:

Astronomy

Sep. 27, 2013 Rise Set
Actual Time 7:00 AM EDT 6:56 PM EDT
Civil Twilight 6:33 AM EDT 7:23 PM EDT
Nautical Twilight 6:02 AM EDT 7:54 PM EDT
Astronomical Twilight 5:30 AM EDT 8:26 PM EDT
Moon No Moon Rise 2:32 PM EDT (9/27)
Length of Visible Light 12h 49m
Length of Day
11h 56m
Last Quarter, 45% of the Moon is Illuminated
Sep 27
Last Quarter
Oct 4
New
Oct 11
First Quarter
Oct 18
Full
Oct 26
Last Quarter

Hourly Weather History & Observations

Time (EDT) Temp. Dew Point Humidity Pressure Visibility Wind Dir Wind Speed Gust Speed Precip Events Conditions
12:05 AM 57.2 °F 53.6 °F 88% 30.10 in 10.0 mi Calm Calm - N/A   Clear
12:25 AM 57.2 °F 53.6 °F 88% 30.10 in 10.0 mi Calm Calm - N/A   Mostly Cloudy
12:45 AM 57.2 °F 51.8 °F 82% 30.11 in 10.0 mi Calm Calm - N/A   Overcast
1:05 AM 57.2 °F 51.8 °F 82% 30.11 in 10.0 mi Calm Calm - N/A   Overcast
1:25 AM 57.2 °F 51.8 °F 82% 30.11 in 10.0 mi Calm Calm - N/A   Overcast
1:45 AM 57.2 °F 51.8 °F 82% 30.11 in 10.0 mi Calm Calm - N/A   Overcast
2:05 AM 57.2 °F 51.8 °F 82% 30.11 in 10.0 mi Calm Calm - N/A   Overcast
2:25 AM 57.2 °F 51.8 °F 82% 30.11 in 10.0 mi Calm Calm - N/A   Overcast
2:45 AM 57.2 °F 51.8 °F 82% 30.11 in 10.0 mi Calm Calm - N/A   Overcast
3:05 AM 57.2 °F 51.8 °F 82% 30.11 in 10.0 mi Calm Calm - N/A   Overcast
3:25 AM 59.0 °F 51.8 °F 77% 30.11 in 10.0 mi Calm Calm - N/A   Overcast
3:45 AM 59.0 °F 53.6 °F 82% 30.11 in 10.0 mi Calm Calm - N/A   Overcast
4:05 AM 59.0 °F 53.6 °F 82% 30.12 in 10.0 mi Calm Calm - N/A   Overcast
4:25 AM 57.2 °F 53.6 °F 88% 30.13 in 10.0 mi Calm Calm - N/A   Overcast
4:45 AM 59.0 °F 53.6 °F 82% 30.13 in 10.0 mi Calm Calm - N/A   Overcast
5:05 AM 59.0 °F 53.6 °F 82% 30.14 in 10.0 mi Calm Calm - N/A   Overcast
5:25 AM 60.8 °F 53.6 °F 77% 30.14 in 10.0 mi Calm Calm - N/A   Overcast
5:45 AM 59.0 °F 53.6 °F 82% 30.14 in 10.0 mi Calm Calm - N/A   Overcast
6:05 AM 59.0 °F 55.4 °F 88% 30.14 in 10.0 mi SE 3.5 mph - N/A   Overcast
6:25 AM 59.0 °F 55.4 °F 88% 30.15 in 10.0 mi SE 4.6 mph - N/A   Overcast
6:45 AM 59.0 °F 55.4 °F 88% 30.16 in 10.0 mi SE 3.5 mph - N/A   Overcast
7:05 AM 59.0 °F 55.4 °F 88% 30.17 in 10.0 mi Calm Calm - N/A   Overcast
7:25 AM 59.0 °F 55.4 °F 88% 30.17 in 10.0 mi ESE 3.5 mph - N/A   Overcast
7:45 AM 59.0 °F 55.4 °F 88% 30.18 in 10.0 mi SE 4.6 mph - N/A   Overcast
8:05 AM 60.8 °F 55.4 °F 82% 30.19 in 10.0 mi ESE 3.5 mph - N/A   Overcast
8:25 AM 60.8 °F 57.2 °F 88% 30.19 in 10.0 mi Calm Calm - N/A   Overcast
8:45 AM 60.8 °F 57.2 °F 88% 30.20 in 10.0 mi SE 3.5 mph - N/A   Overcast
9:05 AM 62.6 °F 57.2 °F 82% 30.20 in 10.0 mi SE 3.5 mph - N/A   Overcast
9:25 AM 62.6 °F 57.2 °F 82% 30.21 in 10.0 mi Calm Calm - N/A   Overcast
9:45 AM 62.6 °F 57.2 °F 82% 30.21 in 10.0 mi SE 3.5 mph - N/A   Overcast
10:05 AM 64.4 °F 59.0 °F 83% 30.22 in 10.0 mi SE 5.8 mph - N/A   Overcast
10:25 AM 64.4 °F 59.0 °F 83% 30.22 in 10.0 mi SE 4.6 mph - N/A   Overcast
10:45 AM 66.2 °F 57.2 °F 73% 30.23 in 10.0 mi SE 3.5 mph - N/A   Overcast
11:05 AM 66.2 °F 57.2 °F 73% 30.23 in 10.0 mi SE 4.6 mph - N/A   Overcast
11:25 AM 66.2 °F 57.2 °F 73% 30.23 in 10.0 mi South 3.5 mph - N/A   Overcast
11:45 AM 66.2 °F 57.2 °F 73% 30.23 in 10.0 mi Calm Calm - N/A   Overcast
12:05 PM 68.0 °F 57.2 °F 68% 30.23 in 10.0 mi Calm Calm - N/A   Overcast
12:25 PM 68.0 °F 57.2 °F 68% 30.23 in 10.0 mi Calm Calm - N/A   Mostly Cloudy
12:45 PM 66.2 °F 55.4 °F 68% 30.22 in 10.0 mi Calm Calm - N/A   Mostly Cloudy
1:05 PM 68.0 °F 55.4 °F 64% 30.22 in 10.0 mi Calm Calm - N/A   Overcast
1:25 PM 66.2 °F 55.4 °F 68% 30.22 in 10.0 mi Calm Calm - N/A   Overcast
1:45 PM 68.0 °F 57.2 °F 68% 30.21 in 10.0 mi SSE 3.5 mph - N/A   Mostly Cloudy
2:05 PM 66.2 °F 57.2 °F 73% 30.20 in 10.0 mi Calm Calm - N/A   Overcast
2:25 PM 66.2 °F 55.4 °F 68% 30.20 in 10.0 mi Calm Calm - N/A   Overcast
2:45 PM 66.2 °F 55.4 °F 68% 30.20 in 10.0 mi Calm Calm - N/A   Overcast
3:05 PM 66.2 °F 55.4 °F 68% 30.20 in 10.0 mi Calm Calm - N/A   Overcast
3:25 PM 66.2 °F 55.4 °F 68% 30.19 in 10.0 mi Calm Calm - N/A   Overcast
3:45 PM 68.0 °F 57.2 °F 68% 30.19 in 10.0 mi Calm Calm - N/A   Mostly Cloudy
4:05 PM 69.8 °F 57.2 °F 64% 30.19 in 10.0 mi Calm Calm - N/A   Mostly Cloudy
4:25 PM 68.0 °F 57.2 °F 68% 30.19 in 10.0 mi Calm Calm - N/A   Scattered Clouds
4:45 PM 69.8 °F 55.4 °F 60% 30.19 in 10.0 mi Calm Calm - N/A   Clear
5:05 PM 69.8 °F 55.4 °F 60% 30.19 in 10.0 mi Calm Calm - N/A   Mostly Cloudy
5:25 PM 69.8 °F 57.2 °F 64% 30.20 in 10.0 mi NE 3.5 mph - N/A   Mostly Cloudy
5:45 PM 68.0 °F 55.4 °F 64% 30.20 in 10.0 mi Calm Calm - N/A   Scattered Clouds
6:05 PM 69.8 °F 59.0 °F 68% 30.20 in 10.0 mi Calm Calm - N/A   Scattered Clouds
6:25 PM 68.0 °F 57.2 °F 68% 30.20 in 10.0 mi Calm Calm - N/A   Mostly Cloudy
6:45 PM 68.0 °F 57.2 °F 68% 30.20 in 10.0 mi Calm Calm - N/A   Mostly Cloudy
7:05 PM 64.4 °F 57.2 °F 77% 30.20 in 10.0 mi Calm Calm - N/A   Mostly Cloudy
7:25 PM 64.4 °F 57.2 °F 77% 30.20 in 10.0 mi Calm Calm - N/A   Scattered Clouds
7:45 PM 62.6 °F 55.4 °F 77% 30.21 in 10.0 mi Calm Calm - N/A   Scattered Clouds
8:05 PM 62.6 °F 55.4 °F 77% 30.21 in 10.0 mi Calm Calm - N/A   Scattered Clouds
8:25 PM 60.8 °F 55.4 °F 82% 30.22 in 10.0 mi Calm Calm - N/A   Clear
8:45 PM 60.8 °F 53.6 °F 77% 30.22 in 10.0 mi Calm Calm - N/A   Clear
9:10 PM 59.0 °F 53.6 °F 82% 30.23 in 10.0 mi Calm Calm - N/A   Clear
9:30 PM 57.2 °F 53.6 °F 88% 30.24 in 10.0 mi Calm Calm - N/A   Clear
9:50 PM 59.0 °F 53.6 °F 82% 30.24 in 10.0 mi Calm Calm - N/A   Clear
10:10 PM 59.0 °F 53.6 °F 82% 30.25 in 10.0 mi Calm Calm - N/A   Clear
10:30 PM 59.0 °F 53.6 °F 82% 30.25 in 10.0 mi Calm Calm - N/A   Clear
10:50 PM 59.0 °F 53.6 °F 82% 30.26 in 10.0 mi ESE 3.5 mph - N/A   Scattered Clouds
11:10 PM 59.0 °F 53.6 °F 82% 30.26 in 10.0 mi Calm Calm - N/A   Scattered Clouds
11:30 PM 59.0 °F 53.6 °F 82% 30.26 in 10.0 mi ESE 4.6 mph - N/A   Scattered Clouds
11:50 PM 59.0 °F 53.6 °F 82% 30.27 in 10.0 mi SE 4.6 mph - N/A   Mostly Cloudy